Waarnemingen

Advertentie
Mijn weer
Nice, Frankrijk (7690): temperatuur & dauwpunt: 26.05.2020 03:00:00 - 01.06.2020 03:00:00 (CEST)Nice, Frankrijk (7690): temperatuur 5cm: 26.05.2020 03:00:00 - 01.06.2020 03:00:00 (CEST)Nice, Frankrijk (7690): temperatuur -20cm & temperatuur -100cm: 26.05.2020 03:00:00 - 01.06.2020 03:00:00 (CEST)Nice, Frankrijk (7690): windsnelheid & windstoten: 26.05.2020 03:00:00 - 01.06.2020 03:00:00 (CEST)Nice, Frankrijk (7690): windrichting: 26.05.2020 03:00:00 - 01.06.2020 03:00:00 (CEST)Nice, Frankrijk (7690): luchtdruk: 26.05.2020 03:00:00 - 01.06.2020 03:00:00 (CEST)Nice, Frankrijk (7690): zicht: 26.05.2020 03:00:00 - 01.06.2020 03:00:00 (CEST)Nice, Frankrijk (7690): Zonneschijnduur: 26.05.2020 03:00:00 - 01.06.2020 03:00:00 (CEST)Nice, Frankrijk (7690): neerslag: 26.05.2020 03:00:00 - 01.06.2020 03:00:00 (CEST)
Datum & Tijd tt [°C] td [°C] tt 5cm [°C] tt -20cm [°C] tt -100cm [°C] ff [km/u] ff [kn] fx [km/u] fx [kn] dd ppp [hPa] vv [km] sd [min] rr [mm]
01.06.2020 03:00:00 17,4 12,9 16,0 20,2 19,7 9 5 11 6 NNW 1016,2 50 0 0,0
01.06.2020 02:00:00 17,0 12,5 16,1 20,2 19,7 11 6 15 8 NNW 1015,9 51 0 0,0
01.06.2020 01:00:00 17,4 12,7 16,6 20,2 19,7 11 6 15 8 NW 1016,0 16 0 0,0
01.06.2020 00:00:00 18,3 13,4 17,0 20,2 19,7 5 3 11 6 NNW 1016,1 40 0 0,0
31.05.2020 23:00:00 18,9 14,2 17,0 20,2 19,7 0 0 14 8 N 1016,0 18 0 0,0
31.05.2020 22:00:00 19,5 15,4 17,8 20,2 19,7 10 5 14 8 ZW 1015,8 53 0 0,0
31.05.2020 21:00:00 19,3 15,2 18,5 20,1 19,7 3 1 6 4 Z 1015,2 60 17 0,0
31.05.2020 20:00:00 20,3 14,6 24,0 20,2 19,7 4 2 13 7 ZZO 1015,0 54 60 0,0
31.05.2020 19:00:00 20,7 13,6 26,7 20,1 19,7 9 5 14 8 Z 1014,7 38 60 0,0
31.05.2020 18:00:00 20,8 14,0 24,3 20,2 19,7 11 6 16 9 ZZW 1015,1 37 31 0,0
31.05.2020 17:00:00 21,2 14,6 29,4 20,2 19,7 10 5 16 8 Z 1015,6 26 58 0,0
31.05.2020 16:00:00 21,4 15,0 30,8 20,2 19,7 9 5 13 7 Z 1015,9 28 60 0,0
31.05.2020 15:00:00 21,3 15,2 29,9 20,2 19,7 8 5 14 7 ZZO 1016,1 31 60 0,0
31.05.2020 14:00:00 21,2 14,6 26,3 20,2 19,7 10 6 16 9 ZZO 1016,4 17 53 0,0
31.05.2020 13:00:00 21,3 14,5 27,9 20,2 19,7 11 6 18 10 ZO 1016,3 16 60 0,0
31.05.2020 12:00:00 21,4 14,3 26,9 20,2 19,7 16 9 26 14 O 1016,2 20 60 0,0
31.05.2020 11:00:00 20,9 15,2 26,5 20,2 19,7 20 11 24 13 O 1016,0 28 60 0,0
31.05.2020 10:00:00 20,7 14,6 25,7 20,2 19,7 14 8 17 9 O 1015,9 43 60 0,0
31.05.2020 09:00:00 20,1 13,1 23,6 20,2 19,7 6 3 11 6 ONO 1016,1 47 60 0,0
31.05.2020 08:00:00 18,6 10,9 16,4 20,2 19,7 8 5 16 9 NNW 1015,7 49 35 0,0
31.05.2020 07:00:00 16,4 10,7 15,6 20,2 19,7 10 6 21 11 N 1015,5 56 1 0,0
31.05.2020 06:00:00 16,3 11,0 15,6 20,2 19,7 11 6 18 10 NNW 1015,2 60 0 0,0
31.05.2020 05:00:00 16,1 11,0 15,3 20,2 19,7 11 6 23 12 N 1015,3 60 0 0,0
31.05.2020 04:00:00 16,4 10,7 15,3 20,2 19,7 14 8 19 11 NW 1015,4 60 0 0,0
31.05.2020 03:00:00 17,1 10,7 15,1 20,1 19,7 11 6 22 12 NW 1015,5 60 0 0,0
31.05.2020 02:00:00 16,1 12,5 15,1 20,1 19,8 9 5 15 8 NW 1015,6 59 0 0,0
31.05.2020 01:00:00 16,6 12,7 15,6 20,1 19,7 9 5 13 7 WNW 1015,7 55 0 0,0
31.05.2020 00:00:00 17,5 11,5 16,1 20,1 19,7 6 3 14 8 NW 1015,8 57 0 0,0
30.05.2020 23:00:00 17,1 12,0 15,7 20,1 19,7 7 4 13 7 WNW 1015,8 60 0 0,0
30.05.2020 22:00:00 17,2 12,5 15,9 20,1 19,7 12 7 21 12 NNW 1015,6 56 0 0,0
30.05.2020 21:00:00 17,0 13,3 16,0 20,1 19,7 9 5 19 11 NNW 1015,4 34 0 0,2
30.05.2020 20:00:00 17,4 12,7 16,7 20,1 19,7 18 10 29 16 NNW 1015,6 20 0 0,2
30.05.2020 19:00:00 18,0 11,8 17,9 20,1 19,7 21 12 39 21 NNW 1015,6 29 0 0,0
30.05.2020 18:00:00 20,3 9,8 22,3 20,1 19,7 10 5 16 9 ZZW 1015,8 54 17 0,0
30.05.2020 17:00:00 20,9 11,2 22,6 20,1 19,7 10 5 14 8 ZZW 1016,0 42 9 0,0
30.05.2020 16:00:00 20,2 11,7 24,4 20,1 19,7 8 4 14 7 Z 1016,4 38 32 0,0
30.05.2020 15:00:00 21,1 12,5 30,8 20,1 19,7 9 5 14 8 Z 1016,6 23 60 0,0
30.05.2020 14:00:00 20,8 13,5 29,9 20,1 19,7 9 5 13 7 Z 1016,8 27 60 0,0
30.05.2020 13:00:00 20,9 12,6 28,2 20,2 19,7 11 6 15 8 ZO 1017,0 32 60 0,0
30.05.2020 12:00:00 20,8 12,0 28,8 20,2 19,7 10 5 13 7 ZO 1017,3 39 60 0,0
30.05.2020 11:00:00 20,9 10,4 28,1 20,2 19,7 5 3 8 4 ZO 1017,6 43 60 0,0
30.05.2020 10:00:00 20,8 9,4 24,6 20,2 19,7 5 3 18 10 OZO 1017,8 40 60 0,0
30.05.2020 09:00:00 19,0 11,1 20,9 20,2 19,7 14 8 21 11 NNW 1017,9 25 60 0,0
30.05.2020 08:00:00 17,1 10,7 15,0 20,2 19,7 11 6 18 10 NNW 1018,1 29 30 0,0
30.05.2020 07:00:00 15,2 10,4 13,9 20,3 19,7 11 6 18 10 NNW 1018,1 48 0 0,0
30.05.2020 06:00:00 15,2 10,6 13,8 20,3 19,7 10 5 16 9 NNW 1018,0 60 0 0,0
30.05.2020 05:00:00 15,5 10,9 14,1 20,3 19,7 12 7 19 10 NNW 1018,1 60 0 0,0
30.05.2020 04:00:00 16,3 10,8 14,5 20,3 19,7 11 6 15 8 NNW 1018,2 60 0 0,0
30.05.2020 03:00:00 16,7 11,6 15,5 20,3 19,7 11 6 17 9 NNW 1018,2 60 0 0,0
30.05.2020 02:00:00 17,2 11,9 16,1 20,3 19,7 14 7 19 11 NW 1018,4 60 0 0,0
30.05.2020 01:00:00 16,9 12,6 15,5 20,3 19,7 13 7 23 12 NNW 1018,8 57 0 0,0
30.05.2020 00:00:00 17,3 12,6 16,2 20,4 19,7 13 7 18 10 NNW 1019,0 60 0 0,0
29.05.2020 23:00:00 17,2 13,3 16,6 20,4 19,7 10 5 15 8 NW 1019,0 54 0 0,0
29.05.2020 22:00:00 17,2 13,5 16,7 20,3 19,7 8 5 14 8 NW 1018,9 43 0 0,0
29.05.2020 21:00:00 17,6 13,9 17,0 20,4 19,7 10 6 14 8 NNW 1019,0 47 0 0,0
29.05.2020 20:00:00 17,7 14,0 16,8 20,4 19,7 8 4 13 7 NW 1019,0 56 0 0,0
29.05.2020 19:00:00 18,1 13,4 18,3 20,4 19,7 9 5 12 7 W 1019,6 59 0 0,0
29.05.2020 18:00:00 18,5 12,9 18,5 20,4 19,7 3 1 20 11 Z 1019,6 19 0 0,0
29.05.2020 17:00:00 18,8 13,2 19,4 20,4 19,7 16 9 31 17 OZO 1019,5 19 0 0,0
29.05.2020 16:00:00 18,9 13,7 20,3 20,4 19,7 27 15 41 22 OZO 1019,4 17 10 0,0
29.05.2020 15:00:00 18,9 13,3 19,0 20,4 19,7 33 18 48 26 OZO 1019,5 18 0 0,0
29.05.2020 14:00:00 18,5 14,4 18,8 20,4 19,7 40 22 53 29 OZO 1019,5 16 0 0,0
29.05.2020 13:00:00 18,7 15,0 19,3 20,4 19,7 40 21 51 27 OZO 1019,4 17 0 0,0
29.05.2020 12:00:00 19,1 15,2 20,0 20,4 19,6 38 21 51 28 O 1019,3 19 0 0,0
29.05.2020 11:00:00 19,5 14,3 20,0 20,4 19,7 20 11 40 22 ONO 1018,9 25 0 0,0
29.05.2020 10:00:00 19,6 14,4 18,8 20,4 19,6 23 13 29 16 O 1018,5 23 0 0,0
29.05.2020 09:00:00 18,2 13,7 17,4 20,4 19,6 5 3 17 9 O 1018,6 17 0 0,0
29.05.2020 08:00:00 17,7 13,6 16,0 20,4 19,6 11 6 16 8 NNW 1018,4 39 0 0,0
29.05.2020 07:00:00 16,9 13,6 15,0 20,4 19,7 10 6 13 7 NNW 1017,9 45 0 0,0
29.05.2020 06:00:00 16,1 13,4 14,8 20,4 19,6 11 6 16 8 NNW 1017,9 41 0 0,0
29.05.2020 05:00:00 16,1 13,8 15,2 20,4 19,6 13 7 19 10 NNW 1017,6 37 0 0,0
29.05.2020 04:00:00 16,5 14,3 15,5 20,4 19,6 11 6 16 9 NNW 1018,2 38 0 0,0
29.05.2020 03:00:00 16,7 14,7 15,7 20,4 19,6 10 6 13 7 NW 1018,8 34 0 0,0
29.05.2020 02:00:00 17,1 15,1 15,8 20,4 19,6 9 5 12 6 NNW 1019,1 33 0 0,0
29.05.2020 01:00:00 17,8 15,1 16,1 20,4 19,6 8 4 9 5 NW 1019,4 39 0 0,0
29.05.2020 00:00:00 18,4 15,1 16,6 20,4 19,6 5 3 10 6 N 1019,8 48 0 0,0
28.05.2020 23:00:00 18,8 15,1 17,2 20,4 19,6 7 4 11 6 NNO 1020,2 44 0 0,0
28.05.2020 22:00:00 18,6 15,3 17,0 20,4 19,6 9 5 14 8 NNW 1020,5 42 0 0,0
28.05.2020 21:00:00 18,9 15,4 17,7 20,4 19,6 7 4 13 7 NO 1020,5 37 0 0,0
28.05.2020 20:00:00 19,6 15,5 18,1 20,4 19,6 4 2 13 7 NO 1021,0 46 0 0,0
28.05.2020 19:00:00 19,8 16,1 18,4 20,4 19,6 11 6 16 9 ONO 1021,6 20 0 0,4
28.05.2020 18:00:00 19,8 15,0 18,7 20,4 19,6 10 5 16 9 ONO 1021,6 19 0 0,2
28.05.2020 17:00:00 20,6 13,3 23,3 20,4 19,6 11 6 14 7 OZO 1021,9 46 35 0,0
28.05.2020 16:00:00 21,7 13,3 32,4 20,4 19,6 11 6 14 8 OZO 1022,5 26 60 0,0
28.05.2020 15:00:00 21,5 12,9 32,4 20,4 19,6 9 5 15 8 ZZO 1023,0 21 60 0,0
28.05.2020 14:00:00 21,4 14,3 33,4 20,4 19,6 10 5 16 9 OZO 1023,6 21 60 0,0
28.05.2020 13:00:00 21,4 13,1 32,5 20,4 19,6 13 7 17 9 OZO 1024,2 22 60 0,0
28.05.2020 12:00:00 21,1 13,3 32,1 20,4 19,6 11 6 14 8 ZO 1024,5 25 60 0,0
28.05.2020 11:00:00 20,9 13,6 30,2 20,4 19,6 13 7 18 10 O 1024,8 29 60 0,0
28.05.2020 10:00:00 20,8 13,5 24,7 20,4 19,5 13 7 18 10 O 1025,4 35 60 0,0
28.05.2020 09:00:00 20,5 12,5 19,3 20,4 19,6 7 4 10 6 ONO 1025,8 38 60 0,0
28.05.2020 08:00:00 19,7 10,1 16,2 20,4 19,5 8 4 15 8 NO 1026,1 30 60 0,0
28.05.2020 07:00:00 17,7 9,3 14,9 20,4 19,5 10 5 16 9 NNW 1026,3 34 36 0,0
28.05.2020 06:00:00 16,8 9,0 14,7 20,5 19,6 14 8 18 10 NNW 1026,3 60 0 0,0
28.05.2020 05:00:00 16,8 8,7 15,0 20,4 19,5 11 6 19 11 NNW 1026,4 60 0 0,0
28.05.2020 04:00:00 16,9 8,8 15,0 20,4 19,5 11 6 18 10 NNW 1026,6 60 0 0,0
28.05.2020 03:00:00 17,3 8,7 15,2 20,4 19,5 14 8 19 11 NNW 1026,8 60 0 0,0
28.05.2020 02:00:00 17,4 8,5 15,1 20,4 19,5 12 7 21 11 NNW 1027,1 60 0 0,0
28.05.2020 01:00:00 17,5 8,6 15,2 20,4 19,5 13 7 16 9 NNW 1027,4 60 0 0,0
28.05.2020 00:00:00 17,9 8,7 16,0 20,4 19,5 13 7 18 10 NNW 1027,6 60 0 0,0
27.05.2020 23:00:00 18,4 9,2 14,4 20,4 19,5 8 4 11 6 NW 1027,8 37 0 0,0
27.05.2020 22:00:00 19,6 8,9 16,2 20,4 19,5 8 4 14 8 ZW 1027,7 60 0 0,0
27.05.2020 21:00:00 20,4 9,0 18,8 20,4 19,5 13 7 16 8 ZZW 1027,1 60 17 0,0
27.05.2020 20:00:00 21,1 10,0 20,7 20,4 19,5 9 5 14 8 ZZW 1027,2 19 50 0,0
27.05.2020 19:00:00 21,3 10,7 22,3 20,4 19,5 11 6 15 8 Z 1027,6 53 33 0,0
27.05.2020 18:00:00 22,0 8,8 26,5 20,4 19,5 9 5 13 7 Z 1027,9 41 57 0,0
27.05.2020 17:00:00 21,9 10,1 26,7 20,4 19,5 6 4 11 6 ZO 1028,4 57 44 0,0
27.05.2020 16:00:00 23,1 10,2 32,0 20,4 19,5 9 5 15 8 OZO 1028,9 31 54 0,0
27.05.2020 15:00:00 22,6 12,2 31,1 20,4 19,4 13 7 16 9 OZO 1029,3 32 48 0,0
27.05.2020 14:00:00 22,2 11,6 30,6 20,4 19,4 14 8 21 11 O 1029,7 38 18 0,0
27.05.2020 13:00:00 22,5 12,4 25,5 20,4 19,4 18 10 22 12 O 1030,0 48 2 0,0
27.05.2020 12:00:00 21,7 12,0 26,2 20,4 19,4 16 9 21 11 ONO 1029,9 44 0 0,0
27.05.2020 11:00:00 21,8 10,9 22,9 20,4 19,4 15 8 29 16 ONO 1029,7 34 9 0,0
27.05.2020 10:00:00 21,0 13,2 20,9 20,3 19,4 23 12 35 19 O 1029,5 32 0 0,0
27.05.2020 09:00:00 20,9 13,3 21,0 20,4 19,4 31 17 41 22 O 1028,8 26 23 0,0
27.05.2020 08:00:00 21,4 13,3 20,0 20,3 19,4 31 17 42 23 O 1028,3 34 3 0,0
27.05.2020 07:00:00 21,3 13,2 19,4 20,3 19,4 24 13 31 17 O 1027,8 53 0 0,0
27.05.2020 06:00:00 21,2 13,6 19,1 20,3 19,4 24 13 37 20 ONO 1027,3 60 0 0,0
27.05.2020 05:00:00 21,1 15,2 18,9 20,3 19,4 30 16 40 22 ONO 1026,9 51 0 0,0
27.05.2020 04:00:00 21,1 14,7 19,1 20,3 19,3 19 11 28 15 O 1026,6 58 0 0,0
27.05.2020 03:00:00 21,1 15,6 19,1 20,3 19,4 21 12 28 15 ONO 1026,5 59 0 0,0
27.05.2020 02:00:00 21,1 15,9 19,2 20,2 19,4 21 11 27 15 ONO 1026,2 46 0 0,0
27.05.2020 01:00:00 22,4 13,5 18,1 20,2 19,3 4 2 12 7 ONO 1026,1 60 0 0,0
27.05.2020 00:00:00 22,2 15,1 18,0 20,2 19,3 6 3 12 7 ONO 1025,7 60 0 0,0
26.05.2020 23:00:00 22,2 13,8 18,7 20,2 19,3 3 2 6 3 ONO 1025,2 59 0 0,0
26.05.2020 22:00:00 22,4 14,8 19,2 20,2 19,3 5 3 6 4 NO 1024,6 60 0 0,0
26.05.2020 21:00:00 22,1 15,0 20,3 20,2 19,3 3 1 3 2 O 1024,1 60 36 0,0
26.05.2020 20:00:00 22,7 14,8 22,3 20,2 19,3 2 1 6 3 ZO 1023,9 59 28 0,0
26.05.2020 19:00:00 23,5 14,8 26,6 20,2 19,3 5 3 6 4 Z 1023,9 57 60 0,0
26.05.2020 18:00:00 23,8 13,9 28,5 20,2 19,3 5 3 8 5 ZZO 1024,0 51 52 0,0
26.05.2020 17:00:00 24,3 13,5 33,4 20,2 19,3 5 3 9 5 ZZO 1024,1 47 60 0,0
26.05.2020 16:00:00 24,7 14,5 34,6 20,2 19,3 5 3 11 6 ZZO 1024,7 28 60 0,0
26.05.2020 15:00:00 24,2 13,7 34,9 20,2 19,3 8 4 12 6 ZZO 1024,9 30 60 0,0
26.05.2020 14:00:00 24,1 14,5 35,7 20,2 19,3 7 4 9 5 Z 1025,1 34 60 0,0
26.05.2020 13:00:00 23,6 14,6 35,1 20,2 19,3 5 3 9 5 OZO 1025,4 37 60 0,0
26.05.2020 12:00:00 23,4 15,4 33,2 20,2 19,3 5 3 8 5 ZZO 1025,4 20 60 0,0
26.05.2020 11:00:00 22,7 14,0 29,8 20,2 19,2 7 4 11 6 ZO 1025,2 28 60 0,0
26.05.2020 10:00:00 22,6 13,4 26,1 20,2 19,3 10 6 12 7 ZZO 1024,8 30 56 0,0
26.05.2020 09:00:00 23,1 12,1 20,2 20,2 19,3 5 3 15 8 N 1024,4 26 60 0,0
26.05.2020 08:00:00 21,2 11,8 17,7 20,2 19,2 10 6 17 9 NNW 1024,1 29 60 0,0
26.05.2020 07:00:00 19,4 10,9 16,1 20,2 19,2 13 7 19 10 NNW 1023,9 34 36 0,0
26.05.2020 06:00:00 19,0 10,5 15,4 20,2 19,3 9 5 15 8 N 1023,6 60 0 0,0
26.05.2020 05:00:00 19,0 10,5 13,8 20,2 19,2 6 3 12 6 N 1023,3 60 0 0,0
26.05.2020 04:00:00 19,8 10,2 14,3 20,1 19,2 8 4 15 8 N 1023,3 60 0 0,0
26.05.2020 03:00:00 20,4 9,9 17,6 20,1 19,2 11 6 24 13 NNW 1023,2 60 0 0,0

tt = temperatuur
td = dauwpunt
tt 5cm = temperatuur 5cm
tt -20cm = temperatuur -20cm
tt -100cm = temperatuur -100cm
ff = windsnelheid
fx = windstoten
dd = windrichting
ppp = luchtdruk
vv = zicht
sd = Zonneschijnduur
rr = neerslag

Weerstations in de omgeving